Время (UTC), дата Ветер
(°,м/с) 
Видим.   Явления Облачность Т
(°С)
Тd
(°С)
f(%) Тe
(°С)
Pmin
(гПа)
dP
(гПа)
Po
(мм)
O2
(г/м3)
Тmin Tmax R s Состояние
почвы
00 01.02.11 250 (З) 5{16}  4000 м  позёмок{ливн. осадки}  8/8 2000 м средняя 
[Ac trans]
-4.2 -11.6 56 -8  1014.4  -0.7  735  302  -7    0.0  19  равномерный
сухой снег
100% 
03 01.02.11 260 (З) 6{14}  >10 км  позёмок  10/3 1000 м средняя 
[Sc|Ac As]
-3.7 -13.5 46 -8  1015.3  0.9  735  301           
06 01.02.11 270 (З) 5{14}  >10 км  слаб. ливневой снег{морось}  10/6 600 м кучево-дожд., средняя 
[Cb cap|Ac As]
-3.6 -11.6 54 -7  1015.7  0.5  736  301           
09 01.02.11 260 (З) 3{12}  >10 км  слаб. ливневой снег  9/6 600 м кучево-дожд., средняя 
[Cb cap|Ac trans]
-3.7 -11.3 55 -6  1016  0.3  736  302           
12 01.02.11 240 (ЮЗ) 4000 м  {ливн. осадки}  9/6 600 м кучево-дожд., средняя 
[Cb cap|Ac trans]
-3.9 -12.7 50 -7  1015.4  -0.7  735  302    -3.2  0.0     
15 01.02.11 250 (З) 4000 м  слаб. ливневой снег  9/5 600 м кучево-дожд., средняя 
[Cb cap|Ac trans]
-3.8 -12.5 51 -6  1014.2  -1.2  734  301           
18 01.02.11 240 (ЮЗ) 4000 м  слаб. ливневой снег  9/6 600 м кучево-дожд., средняя 
[Cb cap|Ac trans]
-3.9 -13.2 48 -5  1012.1  -2  733  301           
21 01.02.11 270 (З) 4000 м  слаб. ливневой снег  10/10 600 м кучево-дожд. 
[Cb cap]
-4.9 -11.6 59 -7  1011.9  -0.3  733  302           
00 02.02.11 270 (З) 4000 м  слаб. ливневой снег  10/10 600 м кучево-дожд. 
[Cb cap]
-6 -10.8 69 -9  1012  733  303  -6.2    0.2  18  равномерный
мокрый или
старый снег
100% 
03 02.02.11 270 (З) >10 км  слаб. ливневой снег  4/4 600 м кучево-дожд. 
[Cb cap]
-7.5 -13.5 62 -11  1014.1  1.8  734  305           
06 02.02.11 260 (З) >10 км  слаб. ливневой снег  10/6 600 м кучево-дожд., верхняя 
[Cb cap|Cs]
-7.5 -11 76 -10  1016  1.9  736  306           
09 02.02.11 270 (З) >10 км  слаб. ливневой снег  10/5 600 м кучево-дожд., верхняя 
[Cb cap|Cs]
-7.7 -12.2 70 -10  1019.1  2.9  738  307           
12 02.02.11 270 (З) 4000 м  слаб. ливневой снег  8/5 600 м кучево-дожд., верхняя 
[Cb cap|Ci fib]
-9.9 -12.1 84 -12  1022.6  3.1  740  311    -5.9  0.6     
15 02.02.11 270 (З) 4000 м  {ливн. осадки}  ясно 
-12.4 -14.4 85 -12  1024.8  1.8  741  314           
18 02.02.11 260 (З) 4000 м  {ливн. осадки}  ясно 
-15.6 -16.2 95 -16  1025.2  741  318           
21 02.02.11 тихо ()   4000 м    ясно 
-16.6 -17.9 90 -17  1025.1  -0.3  741  319           
00 03.02.11 тихо ()   4000 м    ясно 
-18.3 -18.9 95 -18  1024.4  -0.9  740  321  -18.3    0.2  20  равномерный
сухой снег
100% 
03 03.02.11 тихо ()   >10 км    9/0 верхняя 
[Ci fib]
-18.6 -19.2 95 -19  1022.5  -2  739  321           
06 03.02.11 тихо ()   4000 м  дымка  10/0 верхняя 
[Cs]
-14.2 -55.5 1 -14  1017.7  -3.9  736  315           
09 03.02.11 тихо ()   4000 м  дымка  10/10 2000 м 
[As trans]
-12 -14 85 -12  1012.4  -4.9  732  310           
12 03.02.11 тихо ()   н/о  дымка  10/3 600 м кучево-дожд., средняя 
[Cb cap|As trans]
-11.6 -12.9 90 -12  1007.7  -4.3  729  308    -11.3       
15 03.02.11 220 (ЮЗ) 4000 м  слаб. ливневой снег  10/10 600 м кучево-дожд. 
[Cb cap]
-5.3 -7.8 83 -9  1000.4  -6.3  724  298           
18 03.02.11 240 (ЮЗ) 4000 м  слаб. ливневой снег  10/10 600 м кучево-дожд. 
[Cb cap]
-3.6 -5 90 -7  995.4  -4.6  721  295           
21 03.02.11 250 (З) н/о  ливневой снег  10/10 600 м кучево-дожд. 
[Cb cap]
-2.8 -4.1 91 -6  995.2  -0.1  721  294           
00 04.02.11 270 (З) 4000 м  слаб. ливневой снег  10/10 600 м кучево-дожд. 
[Cb cap]
-2.6 -4.2 89 -5  996.9  1.7  722  294  -11.8    22  равномерный
сухой снег
100% 
03 04.02.11 280 (З) 4{17}  >10 км  слаб. ливневой снег  10/10 600 м кучево-дожд. 
[Cb cap]
-5.5 -9.7 72 -9  1002.3  4.8  726  299           
06 04.02.11 270 (З) 5{14}  >10 км  слаб. ливневой снег  9/9 600 м кучево-дожд., средняя 
[Cb cap|Ac trans]
-6.3 -12.3 62 -10  1006.7  4.1  729  302           
09 04.02.11 280 (З) 5{14}  >10 км  слаб. ливневой снег  8/6 600 м кучево-дожд., средняя 
[Cb cap|Ac cast]
-7.1 -12.5 65 -11  1010.4  3.5  731  304           
12 04.02.11 280 (З) 4{17}  4000 м  позёмок{ливн. осадки}  8/5 600 м кучево-дожд., средняя 
[Cb cap|Ac cast]
-9.3 -14.9 64 -13  1015.5  4.6  735  308    -2.6  0.5     
15 04.02.11 280 (З) 3{13}  н/о  слаб. ливневой снег  10/10 600 м кучево-дожд. 
[Cb cap]
-10.5 -14.9 70 -14  1018.2  2.5  737  310           
18 04.02.11 280 (З) 3{13}  4000 м  {ливн. осадки}  6/6 600 м средняя 
[Ac trans]
-12.2 -18.4 60 -16  1020.7  2.1  738  313           
21 04.02.11 280 (З) 4000 м    8/8 2000 м средняя 
[Ac trans]
-13.6 -17.1 75 -16  1021.5  0.7  739  315           
00 05.02.11 250 (З) 1{13}  4000 м  слаб. ливневой снег  10/10 600 м кучево-дожд. 
[Cb cap]
-13 -16.5 75 -13  1020.5  -0.8  738  314  -13.6    0.0  22  равномерный
сухой снег
100% 
03 05.02.11 250 (З) >10 км  слаб. ливневой снег  10/6 600 м кучево-дожд., средняя 
[Cb cap|Ac As]
-13.1 -16.6 75 -13  1020.4  -0.2  738  314           
06 05.02.11 260 (З) >10 км  слаб. ливневой снег  9/4 600 м кучево-дожд., средняя 
[Cb cap|Ac trans]
-9 -14.5 64 -11  1019.2  -0.7  738  309           
09 05.02.11 270 (З) >10 км  слаб. ливневой снег  9/5 600 м кучево-дожд., средняя 
[Cb cap|Ac trans]
-7.8 -13.9 61 -8  1018.3  -0.7  737  307           
12 05.02.11 240 (ЮЗ) 4000 м  {ливн. осадки}  6/0 верхняя 
[Ci fib]
-12.6 -16.1 75 -13  1017.8  -1.1  736  312    -7.2  0.0     
15 05.02.11 240 (ЮЗ) 4000 м    9/0 верхняя 
[Ci fib]
-10.6 -15.9 65 -14  1016.9  -1.4  735  310           
18 05.02.11 260 (З) 4000 м    10/0 верхняя 
[Cs]
-11 -16.3 65 -14  1015.6  -0.5  735  310           
21 05.02.11 240 (ЮЗ) 4000 м    10/0 верхняя 
[Cs]
-8.9 -14.9 62 -11  1014.5  -0.9  734  307           
00 06.02.11 240 (ЮЗ) 4000 м  слаб. ливневой снег  10/10 600 м кучево-дожд. 
[Cb cap]
-9.7 -13.3 75 -11  1013.6  -0.9  734  308  -12.6    0.0  21  равномерный
сухой снег
100% 
03 06.02.11 250 (З) >10 км  слаб. ливневой снег  9/6 600 м кучево-дожд., средняя 
[Cb cap|Ac trans]
-7.3 -10.7 77 -10  1013.5  0.3  734  305           
06 06.02.11 270 (З) >10 км  слаб. ливневой снег  9/5 600 м кучево-дожд., верхняя 
[Cb cap|Cc]
-4.6 -10.3 65 -7  1014.2  734  302           
09 06.02.11 270 (З) >10 км  слаб. ливневой снег  10/5 600 м кучево-дожд., верхняя 
[Cb cap|Cs]
-4.8 -9.2 71 -6  1016.1  1.8  736  303           
12 06.02.11 270 (З) 4000 м  слаб. ливневой снег  10/4 600 м кучево-дожд., верхняя 
[Cb cap|Cs]
-7.4 -11.3 74 -7  1018.4  1.9  737  306    -4.3  0.2     
15 06.02.11 260 (З) 4000 м  {ливн. осадки}  10/0 верхняя 
[Cs]
-7.3 -10.3 79 -9  1020.4  1.9  739  307           
18 06.02.11 260 (З) 4000 м  слаб. ливневой снег  10/6 600 м кучево-дожд., верхняя 
[Cb cap|Cs]
-7.9 -10.6 81 -9  1022  1.5  740  308           
21 06.02.11 260 (З) 4000 м  слаб. ливневой снег  10/8 600 м кучево-дожд., верхняя 
[Cb cap|Cs]
-8.5 -10.8 84 -10  1023.8  1.7  741  309           
00 07.02.11 240 (ЮЗ) 4000 м  слаб. ливневой снег  10/8 600 м кучево-дожд., средняя 
[Cb cap|As trans]
-8.9 -10.9 86 -11  1025.4  1.4  742  310  -8.9    0.0  21  равномерный
сухой снег
100% 
03 07.02.11 270 (З) >10 км  слаб. ливневой снег  10/8 600 м кучево-дожд., средняя 
[Cb cap|Ac trans]
-8.9 -12.3 76 -11  1026.5  743  311           
06 07.02.11 230 (ЮЗ) >10 км  {ливн. осадки}  9/5 600 м кучево-дожд., средняя 
[Cb cap|Ac cast]
-6.3 -11.7 65 -8  1026.8  0.8  743  308           
09 07.02.11 080 (В) >10 км  слаб. ливневой снег  6/5 600 м кучево-дожд., средняя 
[Cb cap|Ac cast]
-7.4 -12.3 68 -7  1027  743  309           
12 07.02.11 тихо ()   4000 м  {ливн. осадки}  5/3 600 м кучево-дожд., средняя 
[Cb cap|Ac cast]
-11 -13.8 80 -11  1027.7  0.1  744  313    -5.5  0.0     
15 07.02.11 220 (ЮЗ) 4000 м    ясно 
-13.2 -14.5 90 -13  1027.6  -0.2  743  316           
18 07.02.11 250 (З) 4000 м    ясно 
-15.4 -16 95 -15  1027.8  -0.1  743  319           
21 07.02.11 тихо ()   4000 м    ясно 
-18.5 -19.7 90 -19  1027.7  -0.7  743  323           
00 08.02.11 260 (З) н/о  дымка  ясно 
-20.4 -21.6 90 -21  1027.9  743  325  -20.5      21  равномерный
сухой снег
100% 
03 08.02.11 тихо ()   2000 м  дымка{туман}  8/3 2000 м средняя, верхняя 
[Ac trans|Ci fib]
-21.5 -22.1 95 -22  1028.7  0.6  743  327           
06 08.02.11 тихо ()   4000 м  дымка{туман}  9/3 2000 м средняя, верхняя 
[Ac trans|Ci fib]
-14.8 -16.8 85 -15  1027.7  -0.1  743  318           
09 08.02.11 тихо ()   4000 м  дымка  8/3 2000 м средняя, верхняя 
[Ac trans|Ci fib]
-12.4 -15.1 81 -12  1027.5  0.2  743  315           
12 08.02.11 250 (З) н/о  дымка  5/3 2000 м средняя, верхняя 
[Ac lent|Ci fib]
-15.5 -16.8 90 -18  1028.3  0.4  744  319    -11.6       
15 08.02.11 090 (В) 4000 м    ясно 
-15.8 -17.1 89 -16  1028.5  744  319           
18 08.02.11 тихо ()   4000 м  слаб. ливневой снег  8/4 600 м кучево-дожд., средняя, верхняя 
[Cb cap|Ac trans|Ci fib]
-17.8 -19 91 -18  1029  0.2  744  322           
21 08.02.11 070 (В) 4000 м  слаб. ливневой снег  10/10 600 м кучево-дожд. 
[Cb cap]
-17 -18.3 90 -17  1029.1  0.3  744  321           
00 09.02.11 090 (В) 4000 м  слаб. ливневой снег  9/3 600 м кучево-дожд., средняя, верхняя 
[Cb cap|Ac trans|Ci fib]
-17.4 -18.6 90 -18  1029.3  0.2  744  322  -17.9    0.0  20  равномерный
сухой снег
100% 
03 09.02.11 080 (В) >10 км  слаб. ливневой снег  9/4 600 м кучево-дожд., средняя, верхняя 
[Cb cap|Ac trans|Ci fib]
-18.6 -20.5 85 -21  1030.3  0.7  745  324           
06 09.02.11 100 (В) >10 км  слаб. ливневой снег  8/3 600 м кучево-дожд., верхняя 
[Cb cap|Ci fib]
-16.1 -18.1 84 -16  1030.3  0.4  745  320           
09 09.02.11 070 (В) >10 км  {ливн. осадки}  8/0 600 м верхняя 
[Ci fib]
-15.1 -18.5 75 -17  1029.7  -0.4  745  319           
12 09.02.11 260 (З) 4000 м  {ливн. осадки}  ясно 600 м 
-19.3 -21.9 80 -20  1030.3  745  324    -14.8  0.0     
15 09.02.11 250 (З) 4000 м    4/0 верхняя 
[Ci fib]
-21 -22.8 85 -21  1030.5  -0.1  745  327           
18 09.02.11 250 (З) 4000 м    3/0 верхняя 
[Ci fib]
-21 -22.8 85 -21  1030.3  -0.1  745  327           
21 09.02.11 тихо ()   4000 м    10/0 верхняя 
[Cs]
-19.8 -21.7 84 -20  1030.1  -0.2  744  325           
00 10.02.11 тихо ()   4000 м    10/5 2000 м средняя, верхняя 
[Ac trans|Cs]
-19.1 -21 85 -19  1030  0.1  744  324  -21.3      20  равномерный
сухой снег
100% 
03 10.02.11 тихо ()   10 км  слаб. снег  10/10 2000 м 
[Ns]
-17.4 -19.3 85 -17  1031.1  1.3  745  322           
06 10.02.11 тихо ()   10 км  слаб. снег  10/10 2000 м 
[Ns]
-14.5 -15.8 90 -15  1031.5  0.8  746  319           
09 10.02.11 050 (СВ) 10 км  {снег}  9/5 600 м кучево-дожд., средняя 
[Cb cap|Ac trans]
-12 -14 85 -12  1032.6  1.4  747  316           
12 10.02.11 230 (ЮЗ) 4000 м  {ливн. осадки, снег}  ясно 
-7.8 -10 84 -9  1033.8  1.6  748  310    -7.5  0.3     
15 10.02.11 250 (З) 4000 м  позёмок  ясно 
-8.2 -10.9 81 -12  1034.5  0.7  749  312           
18 10.02.11 250 (З) 4000 м  в посл. час ливневой снег  3/3 2000 м средняя 
[Ac lent]
-8.8 -11.2 83 -10  1035.4  0.8  749  313           
21 10.02.11 230 (ЮЗ) 4000 м    ясно 
-13.3 -14.6 90 -13  1037  0.9  750  319           
00 11.02.11 060 (СВ) 4000 м    5/5 2000 м средняя 
[Ac trans]
-14.3 -14.9 95 -14  1037.3  0.2  750  320  -14.5    0.0  20  равномерный
сухой снег
100% 
03 11.02.11 тихо ()   4000 м    ясно 
-15.7 -16.3 96 -16  1037.2  -0.4  750  322           
06 11.02.11 тихо ()   4000 м  дымка  ясно 
-12.6 -15.3 80 -13  1034.8  -1.7  749  318           
09 11.02.11 тихо ()   4000 м  дымка  9/0 верхняя 
[Ci fib]
-10.4 -14 75 -10  1032.3  -2.2  747  314           
12 11.02.11 100 (В) н/о  дымка  9/0 верхняя 
[Ci fib]
-12.7 -14 90 -13  1031  -1.6  746  316    -10.1       
15 11.02.11 тихо ()   н/о  дымка  8/0 верхняя 
[Ci fib]
-14.6 -15.9 89 -15  1028.7  -2.4  744  318           
18 11.02.11 170 (Ю) н/о  дымка  8/0 верхняя 
[Ci fib]
-13.5 -14.1 95 -13  1025.2  -3.2  742  316           
21 11.02.11 240 (ЮЗ) н/о  дымка  8/0 верхняя 
[Ci fib]
-13.8 -14.4 95 -14  1022.3  -3  739  315           
00 12.02.11 240 (ЮЗ) 4000 м    8/0 верхняя 
[Ci fib]
-15 -15.6 95 -15  1020.3  -2  738  316  -15      20  равномерный
сухой снег
100% 
03 12.02.11 230 (ЮЗ) 7{15}  >10 км  метель  9/0 верхняя 
[Ci fib]
-3 -13.3 45 -7  1017.6  -1.1  737  301           
06 12.02.11 240 (ЮЗ) 6{16}  >10 км  метель  10/4 2000 м средняя, верхняя 
[Ac lent|Cs]
+0.2 -12.8 37 -3  1016.9  -0.3  737  298           
12 12.02.11 260 (З) 4000 м  позёмок  5/3 2000 м средняя, верхняя 
[Ac lent|Ci fib]
-0.7 -14.8 33 -3  1018.8  1.4  738  299    +0.4       
15 12.02.11 250 (З) 4000 м    8/5 2000 м средняя, верхняя 
[Ac trans|Ci fib]
-1.8 -14 39 -5  1018.9  738  301           
18 12.02.11 250 (З) 4000 м    3/3 2000 м средняя 
[Ac trans]
-4.2 -14.3 45 -6  1019.4  0.2  738  303           
21 12.02.11 230 (ЮЗ) 4000 м    ясно 
-7.5 -13 65 -7  1019.8  738  307           
00 13.02.11 290 (З) 4000 м    10/0 верхняя 
[Cs]
-7.3 -11.6 71 -7  1019.7  -0.1  738  307  -7.8      20  равномерный
мокрый или
старый снег
100% 
03 13.02.11 250 (З) >10 км    10/0 верхняя 
[Cs]
-6 -11.3 66 -7  1019.1  -0.5  738  305           
06 13.02.11 260 (З) >10 км    10/0 верхняя 
[Cs]
-3.2 -9.6 61 -4  1017.7  -1  737  301           
09 13.02.11 270 (З) >10 км    10/10 2000 м 
[Ac As]
-2.3 -10.5 53 -3  1016.7  -0.2  737  300           
12 13.02.11 240 (ЮЗ) 4000 м    9/3 2000 м средняя, верхняя 
[Ac lent|Ci fib]
-5.1 -12 58 -6  1016.8  -0.3  736  303    -2       
15 13.02.11 110 (В) 4000 м    10/0 верхняя 
[Cs]
-5.9 -11.6 64 -6  1016.4  -0.4  736  304           
18 13.02.11 тихо ()   4000 м    10/0 верхняя 
[Cs]
-7 -10.8 74 -7  1016.1  -0.5  736  305           
21 13.02.11 160 (Ю) 4000 м    10/0 верхняя 
[Cs]
-8.5 -11.3 80 -10  1016  -0.2  735  307           
00 14.02.11 250 (З) 4000 м    9/5 2000 м средняя, верхняя 
[Ac lent|Ci fib]
-6.7 -11.8 67 -9  1017  1.1  736  305  -8.5      20  равномерный
мокрый или
старый снег
100% 
03 14.02.11 290 (З) >10 км  слаб. ливневой снег  5/5 600 м кучево-дожд. 
[Cb cap]
-6.3 -9.4 79 -8  1019  738  305           
06 14.02.11 310 (СЗ) >10 км  слаб. ливневой снег  8/8 600 м кучево-дожд., средняя 
[Cb cap|Ac lent]
-5 -11.8 59 -6  1020.7  1.8  739  304           
09 14.02.11 270 (З) >10 км  слаб. ливневой снег  4/4 600 м кучево-дожд. 
[Cb cap]
-6.1 -12 63 -8  1022.2  1.3  740  306           
12 14.02.11 270 (З) 4000 м  {ливн. осадки}  3/0 верхняя 
[Ci fib]
-10.1 -15.4 65 -12  1024.8  742  312    -4.5  0.0     
15 14.02.11 280 (З) 4000 м    9/0 верхняя 
[Ci fib]
-13 -16.5 75 -13  1027  1.7  743  316           
18 14.02.11 280 (З) 4000 м    9/0 верхняя 
[Ci fib]
-14 -17.5 75 -14  1028.4  1.2  691  295           
21 14.02.11 240 (ЮЗ) 4000 м    ясно 
-18.1 -20 85 -18  1030.3  1.3  745  323           
00 15.02.11 тихо ()   4000 м    ясно 
-20.2 -20.8 95 -20  1031.5  0.8  745  326  -20.2      20  равномерный
мокрый или
старый снег
100% 
03 15.02.11 тихо ()   10 км    ясно 
-19.9 -21.1 90 -20  1032.4  0.9  746  326           
06 15.02.11 тихо ()   4000 м  дымка  3/0 верхняя 
[Ci fib]
-16.7 -19.3 80 -17  1031.1  -0.8  745  321           
09 15.02.11 тихо ()   4000 м  дымка  ясно 
-14.4 -16.4 85 -14  1029.8  -0.8  745  318           
12 15.02.11 250 (З) н/о  дымка  5/5 2000 м средняя 
[Ac trans]
-18.2 -19.4 90 -18  1030.4  745  323    -14.1       
15 15.02.11 240 (ЮЗ) н/о  дымка  5/5 2000 м средняя 
[Ac trans]
-19.4 -20.6 90 -20  1028.8  -1.7  744  324           
18 15.02.11 тихо ()   н/о  дымка  5/5 2000 м средняя 
[Ac trans]
-20.9 -22.1 90 -21  1028.2  -0.9  743  326           
21 15.02.11 тихо ()   4000 м    ясно 
-22.2 -23.3 91 -22  1027.6  -0.7  742  327           
00 16.02.11 тихо ()   4000 м    ясно 
-23.9 -25 91 -24  1028.1  0.2  743  330  -23.9      20  равномерный
мокрый или
старый снег
100% 
03 16.02.11 тихо ()   10 км    8/0 верхняя 
[Ci fib]
-23 -23.6 95 -23  1027.9  743  328           
06 16.02.11 тихо ()   4000 м  дымка  10/0 верхняя 
[Cs]
-16.8 -18.7 85 -17  1026.6  -0.4  742  320           
09 16.02.11 тихо ()   4000 м  дымка  10/0 верхняя 
[Cs]
-13 -16.5 75 -13  1024.4  -1.6  741  315           
12 16.02.11 тихо ()   н/о  дымка  10/10 2000 м 
[Ns]
-12.6 -15.3 80 -13  1022.8  -1.4  740  314    -11.8       
15 16.02.11 200 (Ю) н/о  слаб. ливневой снег  10/8 600 м кучево-дожд., средняя 
[Cb cap|As trans]
-10.1 -11.4 90 -10  1020.5  -2  738  310           
18 16.02.11 240 (ЮЗ) 4000 м  слаб. ливневой снег  9/6 600 м кучево-дожд., средняя, верхняя 
[Cb cap|Ac trans|Ci ing]
-5.1 -9.2 73 -7  1020.7  0.9  739  304           
21 16.02.11 250 (З) 4000 м  слаб. ливневой снег  10/5 600 м кучево-дожд., верхняя 
[Cb cap|Cs]
-6.7 -8.3 88 -8  1021.7  0.8  740  306           
00 17.02.11 230 (ЮЗ) 4000 м  {ливн. осадки}  10/3 600 м кучево-дожд., средняя, верхняя 
[Cb cap|Ac lent|Cs]
-8.6 -9.7 92 -10  1021.3  -0.6  739  309  -12.6    0.0  19  равномерный
мокрый или
старый снег
100% 
03 17.02.11 тихо ()   >10 км  слаб. ливневой снег  10/6 600 м кучево-дожд., средняя 
[Cb cap|Ac As]
-8.8 -10.7 86 -9  1020.8  -0.7  739  309           
06 17.02.11 230 (ЮЗ) 4000 м  ливневой снег  10/10 600 м кучево-дожд. 
[Cb cap]
-6.8 -8.8 86 -6  1019.1  -1.3  738  306           
09 17.02.11 240 (ЮЗ) >10 км  слаб. ливневой снег  10/5 600 м кучево-дожд., средняя, верхняя 
[Cb cap|Ac trans|Cs]
-2.5 -5.1 82 -5  1016.4  -2  736  300           
12 17.02.11 130 (ЮВ) 4000 м  слаб. ливневой снег  10/8 600 м кучево-дожд., средняя, верхняя 
[Cb cap|Ac trans|Cs]
-3 -5.4 83 -4  1015.8  -0.7  736  300    -2.3     
15 17.02.11 310 (СЗ) 4000 м  слаб. ливневой снег  10/6 600 м кучево-дожд., средняя 
[Cb cap|As trans]
-2.1 -4.9 81 -2  1013.8  -1.8  734  299           
18 17.02.11 270 (З) 4000 м  {ливн. осадки}  9/5 600 м кучево-дожд., средняя, верхняя 
[Cb cap|Ac trans|Ci fib]
-1.7 -6.2 71 -1  1012.2  -1.4  733  298           
21 17.02.11 230 (ЮЗ) 4000 м  позёмок  9/9 2000 м средняя 
[Ac trans]
-0.3 -7.3 59 -3  1010.1  -2  732  296           
00 18.02.11 240 (ЮЗ) 6{12}  4000 м  позёмок  8/8 2000 м средняя 
[Ac trans]
+0.4 -8.8 50 -3  1008.2  -1.6  731  295  -3.5    0.0  20  равномерный
мокрый или
старый снег
100% 
03 18.02.11 230 (ЮЗ) 6{14}  >10 км  позёмок  10/5 600 м кучево-дожд., средняя, верхняя 
[Cb cap|Ac trans|Cs]
+1.1 -7.6 52 -2  1008.7  0.6  731  294           
06 18.02.11 210 (ЮЗ) 3{12}  >10 км    10/3 600 м средняя 
[Cu hum|Ac As]
+2.5 -10.9 37 +1  1010.7  733  293           
09 18.02.11 260 (З) >10 км    10/3 600 м средняя, верхняя 
[Cu hum|Ac trans|Cs]
+2.8 -8.3 44 +1  1012  1.3  734  293           
12 18.02.11 260 (З) 4{12}  4000 м    10/5 600 м кучево-дожд., верхняя 
[Cb cap|Cs]
+0.9 -8.5 49 -1  1013.7  1.4  735  296    +3       
15 18.02.11 270 (З) 4000 м    10/3 600 м кучево-дожд., средняя, верхняя 
[Cb cap|Ac trans|Cs]
-1.6 -11.9 45 -4  1015.5  1.5  736  299           
18 18.02.11 280 (З) 4000 м    10/3 600 м кучево-дожд., средняя, верхняя 
[Cb cap|Ac trans|Cs]
-3.7 -14 45 -6  1016.7  0.7  736  302           
21 18.02.11 280 (З) 4000 м    10/5 600 м кучево-дожд., средняя 
[Cb cap|Ac As]
-5.1 -13.6 51 -6  1017.4  0.6  737  304           
00 19.02.11 260 (З) 4000 м    10/5 2000 м средняя, верхняя 
[Ac lent|Cs]
-7.1 -16.4 47 -7  1019.3  1.6  738  307  -7.1      20  равномерный
мокрый или
старый снег
100% 
03 19.02.11 260 (З) >10 км    10/10 2000 м 
[Ac trans]
-7.5 -17.1 46 -10  1020.5  1.1  739  307           
06 19.02.11 070 (В) >10 км    9/9 2000 м средняя 
[Ac trans]
-6.5 -16.7 44 -6  1020.3  -0.1  739  306           
09 19.02.11 060 (СВ) >10 км    9/3 600 м кучево-дожд., средняя 
[Cb cap|Ac trans]
-6.6 -16.2 46 -6  1020.5  0.2  739  306           
12 19.02.11 250 (З) 4000 м    6/6 2000 м средняя 
[Ac trans]
-10.6 -16.8 60 -10  1021.7  0.7  739  311    -7       
15 19.02.11 тихо ()   4000 м    8/8 2000 м средняя 
[Ac cast]
-13.7 -18 70 -14  1023.2  0.9  740  315           
18 19.02.11 250 (З) 4000 м    8/8 2000 м средняя 
[Ac trans]
-13.6 -18.8 65 -14  1024.2  0.9  741  316           
21 19.02.11 тихо ()   4000 м    8/8 2000 м средняя 
[Ac trans]
-15 -18.4 75 -15  1024.7  0.4  741  317           
00 20.02.11 250 (З) 4000 м    8/8 2000 м средняя 
[Ac trans]
-17.2 -20.6 75 -17  1025.6  0.6  741  320  -17.2      20  равномерный
мокрый или
старый снег
100% 
03 20.02.11 тихо ()   >10 км    10/0 верхняя 
[Cs]
-17.1 -19 86 -17  1025.8  -0.2  742  320           
06 20.02.11 060 (СВ) 4000 м  дымка  10/10 2000 м 
[As trans]
-13.9 -17.4 75 -14  1025.2  -0.2  741  316           
09 20.02.11 040 (СВ) 4000 м  дымка  10/10 2000 м 
[As trans]
-12.3 -15.8 75 -12  1024.1  -0.8  741  314           
12 20.02.11 260 (З) н/о  дымка  8/0 верхняя 
[Ci fib]
-15.4 -18.1 79 -15  1024.8  0.3  741  318    -11.6       
15 20.02.11 260 (З) н/о  дымка  ясно 
-18.2 -19.4 90 -18  1024.9  -0.3  741  321           
18 20.02.11 тихо ()   н/о  дымка  10/0 верхняя 
[Cs]
-19.2 -19.8 96 -19  1025.9  0.8  741  323           
21 20.02.11 тихо ()   н/о  дымка  10/0 средняя, верхняя 
[Ac lent|Cs]
-20.3 -21.5 90 -20  1026.1  741  324           
00 21.02.11 тихо ()   н/о  слаб. снег  10/10 2000 м 
[Ns]
-19.3 -19.9 95 -19  1026.8  0.9  742  323  -20.5    0.0  19  равномерный
мокрый или
старый снег
100% 
03 21.02.11 260 (З) >10 км  {снег}  ясно 
-13.9 -17.4 75 -17  1028.6  2.4  744  317           
06 21.02.11 270 (З) >10 км  слаб. ливневой снег  9/6 600 м кучево-дожд., верхняя 
[Cb cap|Ci fib]
-12.5 -18.7 60 -16  1029.8  1.5  745  316           
09 21.02.11 300 (СЗ) >10 км  в посл. час ливневой снег  10/5 600 м кучево-дожд., верхняя 
[Cb cap|Cs]
-11.4 -16.7 65 -11  1028.7  -1  744  314           
12 21.02.11 230 (ЮЗ) 4000 м  {ливн. осадки}  10/6 2000 м средняя, верхняя 
[Ac lent|Cs]
-15.3 -19.5 70 -15  1029  -0.2  744  319    -11.2  0.0     
15 21.02.11 230 (ЮЗ) 4000 м    9/0 верхняя 
[Ci fib]
-19 -20.2 90 -19  1029.5  -0.1  744  324           
18 21.02.11 240 (ЮЗ) 4000 м    9/8 2000 м средняя, верхняя 
[Ac trans|Ci fib]
-19.9 -21.1 90 -20  1029.6  -0.1  744  325           
21 21.02.11 280 (З) 4000 м  слаб. снег  10/0 2000 м средняя 
[As op]
-19.3 -0.5 100 -20  1029.7  0.3  744  323           
00 22.02.11 230 (ЮЗ) 4000 м  {снег}  10/0 верхняя 
[Cs]
-21.2 -22.4 90 -22  1030.2  0.2  744  327  -21.2    0.2  19  равномерный
сухой снег
100% 
03 22.02.11 тихо ()   4000 м  слаб. снег  10/0 верхняя 
[Cs]
-21.2 -22.4 90 -21  1031.4  1.1  745  327           
06 22.02.11 060 (СВ) 10 км  слаб. ливневой снег  10/4 600 м кучево-дожд., верхняя 
[Cb cap|Cs]
-18.8 -20.7 85 -19  1031.3  0.2  745  324           
09 22.02.11 340 (С) >10 км  слаб. ливневой снег  8/8 600 м кучево-дожд. 
[Cb cap]
-16.6 -20 75 -17  1031.3  0.3  746  321           
12 22.02.11 240 (ЮЗ) 4000 м  {ливн. осадки}  ясно 
-21.5 -23.3 85 -22  1033.6  1.6  747  328    -16.1  0.2     
15 22.02.11 250 (З) 4000 м    4/0 верхняя 
[Ci fib]
-23.5 -26 80 -24  1034.3  0.4  747  331           
18 22.02.11 тихо ()   4000 м    3/0 верхняя 
[Ci fib]
-25 -26.7 85 -25  1035.9  1.2  748  334           
21 22.02.11 240 (ЮЗ) 4000 м    4/0 верхняя 
[Ci fib]
-23.5 -25.3 85 -27  1036.1  0.5  748  332           
00 23.02.11 тихо ()   4000 м    ясно 
-28.5 -30.2 86 -29  1037.1  0.2  749  339  -28.5      19  равномерный
мокрый или
старый снег
100% 
03 23.02.11 тихо ()   >10 км    ясно 
-26.3 -28 85 -26  1037.1  0.4  749  336           
06 23.02.11 070 (В) 4000 м  дымка  ясно 
-22.1 -25.4 75 -22  1036.1  -0.4  749  330           
09 23.02.11 040 (СВ) 4000 м  дымка  ясно 
-18.4 -21.7 75 -19  1034.7  -0.8  748  325           
12 23.02.11 250 (З) н/о  дымка  ясно 
-23.2 -25.7 80 -24  1035.5  748  331    -18.1       
15 23.02.11 250 (З) н/о  дымка  ясно 
-24.6 -25.7 90 -25  1035.5  -0.3  748  333           
18 23.02.11 тихо ()   н/о  дымка  ясно 
-25.4 -26.5 90 -25  1034.7  -0.7  747  334           
21 23.02.11 тихо ()   н/о  дымка  ясно 
-27.4 -29.1 85 -27  1034.7  -0.3  747  336           
00 24.02.11 тихо ()   н/о  дымка  ясно 
-29.7 -31.5 85 -30  1035.3  0.1  747  340  -29.7      19  равномерный
мокрый или
старый снег
100% 
03 24.02.11 тихо ()   4000 м  дымка  ясно 
-28 -29.8 85 -28  1036.7  1.6  748  338           
06 24.02.11 060 (СВ) 10 км    ясно 
-11.7 -24.2 35 -12  1036.9  1.2  749  317           
09 24.02.11 тихо ()   4000 м  дымка  ясно 
-29.8 -31.5 85 -30  1037  1.6  748  340           
12 24.02.11 240 (ЮЗ) 4000 м    ясно 
-21 -21.3 97 -21  1038.6  1.6  750  329    -16.8       
15 24.02.11 240 (ЮЗ) 4000 м    8/5 2000 м средняя, верхняя 
[Ac trans|Ci fib]
-17.8 -21.9 70 -20  1041.6  3.4  753  326           
18 24.02.11 250 (З) 4000 м  слаб. ливневой снег  9/6 600 м кучево-дожд., средняя, верхняя 
[Cb cap|Ac trans|Ci fib]
-18.1 -22.2 70 -22  1043.4  1.7  754  327           
21 24.02.11 250 (З) 4000 м  слаб. ливневой снег  9/4 600 м кучево-дожд., верхняя 
[Cb cap|Ci fib]
-19 -22.3 75 -23  1044.5  0.9  755  329           
00 25.02.11 250 (З) 4000 м  позёмок{ливн. осадки}  8/3 600 м кучево-дожд., средняя, верхняя 
[Cb cap|Ac lent|Ci fib]
-20 -23.3 75 -26  1046.1  1.4  756  330  -21.2    0.0  19  равномерный
мокрый или
старый снег
100% 
03 25.02.11 270 (З) >10 км    8/3 1000 м средняя, верхняя 
[Cu hum|Ac lent|Ci sp]
-19 -23.1 70 -22  1007.9  -0.2  756  329           
06 25.02.11 250 (З) >10 км    8/8 2000 м средняя, верхняя 
[Ac lent|Ci fib]
-14 -20.1 60 -16  1045.3  0.3  756  323           
09 25.02.11 250 (З) >10 км    9/3 600 м кучево-дожд., верхняя 
[Cb cap|Cc]
-12.2 -18.4 60 -14  1043.9  -1.1  755  320           
12 25.02.11 260 (З) 4000 м    9/0 верхняя 
[Ci fib]
-14.6 -20.7 60 -15  1042.6  -1.6  754  323    -11.1       
15 25.02.11 280 (З) 4000 м    6/0 верхняя 
[Ci sp]
-15.8 -20.9 65 -20  1042.5  -0.2  754  324           
18 25.02.11 250 (З) 4000 м    10/10 2000 м 
[Ac trans]
-15.8 -20.9 65 -20  1041.3  -1.2  753  324           
21 25.02.11 250 (З) 4000 м  слаб. ливневой снег  8/4 600 м кучево-дожд., средняя, верхняя 
[Cb cap|Ac trans|Ci fib]
-15.9 -19.3 75 -20  1040  -1.3  752  323           
00 26.02.11 260 (З) 4000 м  слаб. ливневой снег  8/5 600 м кучево-дожд., средняя, верхняя 
[Cb cap|Ac lent|Ci fib]
-16 -19.4 75 -20  1039.4  -0.5  752  323  -16.5    0.0  19  равномерный
мокрый или
старый снег
100% 
03 26.02.11 240 (ЮЗ) >10 км  слаб. ливневой снег  9/6 600 м кучево-дожд., средняя 
[Cb cap|Ac trans]
-14.8 -18.2 75 -18  1039.4  0.1  752  322           
06 26.02.11 240 (ЮЗ) >10 км  {ливн. осадки}  10/3 600 м кучево-дожд., средняя 
[Cb cap|Ac As]
-12.2 -18.4 60 -16  1037.6  -1.3  751  318           
09 26.02.11 250 (З) >10 км  позёмок  10/3 600 м средняя 
[Cu hum|Ac As]
-10.9 -17.1 60 -16  1036.8  -0.7  750  316           
12 26.02.11 260 (З) >10 км  слаб. ливневой снег  10/6 600 м кучево-дожд., средняя 
[Cb cap|Ac As]
-12.5 -16.8 71 -18  1036.9  750  318    -10.5  0.0     
15 26.02.11 260 (З) 4000 м  слаб. ливневой снег  10/5 600 м кучево-дожд., верхняя 
[Cb cap|Cs]
-13.4 -16.9 75 -17  1038.2  1.1  751  320           
18 26.02.11 260 (З) 4000 м  слаб. ливневой снег  10/8 600 м кучево-дожд., верхняя 
[Cb cap|Cs]
-13.2 -15.9 80 -18  1039  0.8  752  320           
21 26.02.11 260 (З) 4000 м  слаб. ливневой снег  10/6 600 м кучево-дожд., верхняя 
[Cb cap|Cs]
-13.6 -16.3 80 -18  1039.2  0.2  752  320           
00 27.02.11 260 (З) 4000 м  слаб. ливневой снег  10/10 600 м кучево-дожд. 
[Cb cap]
-13.6 -16.3 80 -17  1039.5  0.2  752  320  -13.6    0.4  20  равномерный
сухой снег
100% 
03 27.02.11 250 (З) 10 км  слаб. ливневой снег  10/4 600 м кучево-дожд., верхняя 
[Cb cap|Cs]
-13.1 -15.8 80 -17  1039.2  -0.2  752  320           
06 27.02.11 270 (З) >10 км  слаб. ливневой снег  9/3 600 м кучево-дожд., средняя, верхняя 
[Cb cap|Ac trans|Ci fib]
-10.4 -14.8 70 -13  1037.5  -1.3  751  316           
09 27.02.11 270 (З) >10 км  слаб. ливневой снег  9/3 600 м кучево-дожд., средняя, верхняя 
[Cb cap|Ac trans|Ci fib]
-9.1 -13.6 70 -12  1035.8  -1.6  750  314           
12 27.02.11 270 (З) >10 км  слаб. ливневой снег  10/10 600 м кучево-дожд. 
[Cb cap]
-10.4 -13.2 80 -13  1037.1  1.2  750  316    -8.5  0.4     
15 27.02.11 270 (З) 4000 м  слаб. ливневой снег  4/4 600 м кучево-дожд. 
[Cb cap]
-12.2 -15.7 75 -14  1038.4  1.1  751  318           
18 27.02.11 260 (З) 4000 м  слаб. ливневой снег  3/3 600 м кучево-дожд. 
[Cb cap]
-14 -16.7 80 -18  1039.2  0.5  752  321           
21 27.02.11 260 (З) 4000 м  слаб. ливневой снег  9/6 600 м кучево-дожд., средняя 
[Cb cap|Ac trans]
-14.2 -16.9 80 -19  1039  -0.2  752  321           
00 28.02.11 270 (З) 4000 м  слаб. ливневой снег  10/3 600 м кучево-дожд., средняя 
[Cb cap|As op]
-13.8 -17.3 75 -18  1037.6  -1.4  750  320  -14.2    0.2  20  равномерный
сухой снег
100% 
03 28.02.11 270 (З) >10 км  слаб. ливневой снег  10/6 600 м кучево-дожд., средняя 
[Cb cap|Ac As]
-12.3 -15.8 75 -16  1037.1  -0.2  750  318           
06 28.02.11 260 (З) >10 км  слаб. ливневой снег  10/4 600 м кучево-дожд., средняя 
[Cb cap|Ac As]
-10 -15.3 65 -14  1036.2  -0.6  750  315           
12 28.02.11 250 (З) >10 км  слаб. ливневой снег  10/10 600 м кучево-дожд. 
[Cb cap]
-9.3 -13.8 70 -12  1034.5  -0.9  749  314    -9.1  0.2     
15 28.02.11 260 (З) 4000 м  {ливн. осадки}  8/3 600 м кучево-дожд., средняя 
[Cb cap|Ac trans]
-9 -15.1 61 -12  1033.2  -1.3  748  313           
18 28.02.11 280 (З) 4000 м  слаб. ливневой снег  10/10 600 м кучево-дожд. 
[Cb cap]
-9.3 -14.4 66 -12  1032.9  -0.3  748  313           
21 28.02.11 260 (З) 4000 м  слаб. ливневой снег  10/10 600 м кучево-дожд. 
[Cb cap]
-10.4 -12.4 85 -13  1032.1  -0.8  747  314           
00 01.03.11 270 (З) 4000 м  слаб. ливневой снег  9/5 600 м кучево-дожд., средняя, верхняя 
[Cb cap|Ac trans|Ci fib]
-10.1 -13.7 75 -13  1032  -0.1  747  314  -10.4    0.3  20  равномерный
сухой снег
100% 
03 01.03.11 260 (З) 5{12}  >10 км  слаб. ливневой снег  10/10 600 м кучево-дожд. 
[Cb cap]
-9.7 -13.8 72 -14  1033.6  1.5  748  314           
06 01.03.11 270 (З) >10 км  слаб. ливневой снег  10/10 600 м кучево-дожд., верхняя 
[Cb cap|As trans|Ci fib]
-7.8 -12.3 70 -11  1034.1  0.8  749  312           
09 01.03.11 260 (З) >10 км  слаб. ливневой снег  10/10 600 м кучево-дожд. 
[Cb cap]
-6.5 -10.6 73 -9  1034.6  0.7  749  310           
12 01.03.11 260 (З) >10 км  слаб. ливневой снег  10/10 600 м кучево-дожд. 
[Cb cap]
-6.1 -10.5 71 -9  1032.9  -1.7  748  309    -5.7  0.2     
15 01.03.11 270 (З) 4000 м  слаб. ливневой снег  9/6 600 м кучево-дожд., средняя 
[Cb cap|Ac trans]
-6.7 -10.4 75 -8  1031.7  -1.1  747  310           
18 01.03.11 270 (З) 4000 м  {ливн. осадки}  9/9 2000 м средняя 
[Ac trans]
-6.1 -10.1 73 -8  1031  -0.7  746  309           
21 01.03.11 270 (З) 4000 м    10/10 600 м кучево-дожд. 
[Cb cap]
-5.9 -10.7 69 -7  1029.9  -1.1  746  308           
00 02.03.11 270 (З) 4000 м    10/3 600 м кучево-дожд., средняя 
[Cb cap|Ac trans]
-6 -9.9 74 -9  1028.9  -0.9  745  308  -6.7    0.0  19  равномерный
сухой снег
100% 
03 02.03.11 250 (З) >10 км    8/8 600 м кучево-дожд. 
[Cb cap]
-5.5 -9.7 72 -7  1028.3  -0.4  745  307           
06 02.03.11 250 (З) >10 км    8/3 600 м средняя, верхняя 
[Cu med, cong|Ac trans|Cc]
-2 -8.2 63 -4  1026.2  -1.7  743  303           
09 02.03.11 270 (З) >10 км    9/0 верхняя 
[Ci fib]
+1 -11.1 40 -1  1023  -2.8  741  299           
12 02.03.11 270 (З) >10 км    9/0 верхняя 
[Ci fib]
-2.6 -13.1 44 -5  1022.2  -1  741  302    +1.3       
15 02.03.11 240 (ЮЗ) 4000 м    8/0 верхняя 
[Ci fib]
-6.7 -14.5 54 -8  1022.1  -0.8  740  307           
18 02.03.11 250 (З) 4000 м    9/3 2000 м средняя, верхняя 
[Ac lent|Ci fib]
-6.3 -13.9 55 -9  1020.9  -1.1  739  306           
21 02.03.11 250 (З) 4000 м    10/0 верхняя 
[Cs]
-7.3 -14.3 57 -9  1020.6  -0.4  739  307           
00 03.03.11 280 (З) 4000 м    8/0 верхняя 
[Ci fib]
-8.7 -14.6 62 -10  1020.4  -0.5  738  309  -8.7      19  равномерный
мокрый или
старый снег
100% 
03 03.03.11 240 (ЮЗ) >10 км    10/3 2000 м средняя, верхняя 
[Ac lent|Cs]
-7.3 -14.3 57 -9  1020.3  0.2  739  307           
06 03.03.11 260 (З) >10 км    10/0 верхняя 
[Cs]
-3 -11.6 51 -4  1019.8  739  302           
09 03.03.11 320 (СЗ) >10 км    10/6 600 м кучево-дожд., верхняя 
[Cb cap|Cs]
-2.6 -13.1 44 -2  1019.4  -0.2  738  302           
12 03.03.11 280 (З) >10 км    10/0 верхняя 
[Cs]
-8 -15.4 55 -10  1021.6  1.4  740  308    -2.2       
15 03.03.11 270 (З) 4000 м    9/0 верхняя 
[Ci fib]
-11.2 -18.5 55 -13  1025.4  3.2  742  313           
18 03.03.11 280 (З) 4000 м    9/0 верхняя 
[Ci fib]
-13.1 -19.2 60 -15  1028.5  2.8  744  316           
21 03.03.11 260 (З) 4000 м    9/0 верхняя 
[Ci fib]
-13.9 -19.1 65 -16  1030.1  1.4  745  318           
00 04.03.11 250 (З) 4000 м    8/3 2000 м средняя, верхняя 
[Ac lent|Ci fib]
-15.4 -18.1 79 -18  1030.4  0.1  745  320  -15.6      19  равномерный
мокрый или
старый снег
100% 
03 04.03.11 240 (ЮЗ) >10 км    3/0 верхняя 
[Ci fib]
-12.6 -16.1 75 -15  1029.8  -0.1  745  316           
06 04.03.11 240 (ЮЗ) >10 км    3/0 верхняя 
[Ci fib]
-6.7 -14.5 54 -8  1028.8  -0.3  745  309           
09 04.03.11 270 (З) >10 км    ясно 
-4.6 -17.1 37 -7  1027.4  -1  744  306           
Время (UTC), дата Ветер
(°,м/с) 
Видим.   Явления Облачность Т
(°С)
Тd
(°С)
f(%) Тe
(°С)
Pmin
(гПа)
dP
(гПа)
Po
(мм)
O2
(г/м3)
Тmin Tmax R s Состояние
почвы